TimeCDT,TemperatureF,Dew PointF,Humidity,Sea Level PressureIn,VisibilityMPH,Wind Direction,Wind SpeedMPH,Gust SpeedMPH,PrecipitationIn,Events,Conditions,WindDirDegrees,DateUTC
12:53 AM,75.0,68.0,79,29.98,10.0,SSE,4.6,-,N/A,,Mostly Cloudy,150,2013-07-14 05:53:00
1:53 AM,73.9,66.9,79,29.97,10.0,SSE,5.8,-,N/A,,Scattered Clouds,160,2013-07-14 06:53:00
2:53 AM,73.0,66.9,81,29.97,10.0,ESE,3.5,-,N/A,,Scattered Clouds,120,2013-07-14 07:53:00
3:53 AM,72.0,66.9,84,29.97,9.0,Calm,Calm,-,N/A,,Clear,0,2013-07-14 08:53:00
4:53 AM,72.0,66.9,84,29.96,10.0,SE,3.5,-,N/A,,Clear,130,2013-07-14 09:53:00
5:53 AM,70.0,66.9,90,29.98,6.0,ENE,4.6,-,N/A,,Clear,70,2013-07-14 10:53:00
6:53 AM,71.1,66.9,87,29.99,6.0,Calm,Calm,-,N/A,,Clear,0,2013-07-14 11:53:00
7:49 AM,73.4,66.2,78,30.03,10.0,Calm,Calm,-,N/A,,Mostly Cloudy,0,2013-07-14 12:49:00
7:53 AM,73.0,66.9,81,30.02,10.0,SSE,4.6,-,N/A,,Mostly Cloudy,160,2013-07-14 12:53:00
8:18 AM,73.4,66.2,78,30.04,10.0,Calm,Calm,-,N/A,,Scattered Clouds,0,2013-07-14 13:18:00
8:53 AM,73.9,66.0,76,30.04,10.0,ESE,4.6,-,0.00,,Overcast,120,2013-07-14 13:53:00
9:53 AM,73.0,66.0,79,30.09,10.0,SSE,6.9,-,0.00,Rain,Light Rain,160,2013-07-14 14:53:00
10:29 AM,69.8,64.4,83,30.10,10.0,North,12.7,32.2,0.00,,Overcast,360,2013-07-14 15:29:00
10:53 AM,69.1,64.0,84,30.09,10.0,North,9.2,-,0.00,,Overcast,10,2013-07-14 15:53:00
11:53 AM,70.0,62.1,76,30.09,10.0,NNE,10.4,-,N/A,,Overcast,20,2013-07-14 16:53:00
12:53 PM,72.0,62.1,71,30.08,10.0,North,15.0,24.2,N/A,,Overcast,360,2013-07-14 17:53:00
1:37 PM,71.6,62.6,73,30.11,10.0,NNE,9.2,-,N/A,,Overcast,30,2013-07-14 18:37:00
1:53 PM,73.9,63.0,68,30.10,10.0,NE,10.4,-,N/A,,Overcast,50,2013-07-14 18:53:00
2:53 PM,73.0,63.0,71,30.12,10.0,ENE,5.8,-,N/A,,Overcast,60,2013-07-14 19:53:00
3:53 PM,72.0,64.9,78,30.13,8.0,East,3.5,-,0.00,Rain,Light Rain,80,2013-07-14 20:53:00
4:37 PM,75.2,66.2,73,30.12,10.0,ENE,4.6,-,0.00,,Overcast,70,2013-07-14 21:37:00
4:53 PM,75.9,66.0,71,30.12,10.0,NE,5.8,-,0.00,,Overcast,40,2013-07-14 21:53:00
5:14 PM,75.2,66.2,73,30.13,10.0,NE,5.8,-,N/A,,Overcast,40,2013-07-14 22:14:00
5:53 PM,75.0,66.0,73,30.13,10.0,ENE,3.5,-,N/A,,Overcast,70,2013-07-14 22:53:00
6:53 PM,73.9,68.0,82,30.13,10.0,ESE,4.6,-,N/A,,Overcast,120,2013-07-14 23:53:00
7:53 PM,73.9,68.0,82,30.14,10.0,ESE,3.5,-,N/A,,Overcast,110,2013-07-15 00:53:00
8:53 PM,73.0,69.1,87,30.15,10.0,ESE,3.5,-,N/A,,Overcast,110,2013-07-15 01:53:00
9:09 PM,73.4,69.8,88,30.16,8.0,Calm,Calm,-,N/A,,Overcast,0,2013-07-15 02:09:00
9:53 PM,73.0,68.0,84,30.17,10.0,ESE,4.6,-,0.00,,Overcast,110,2013-07-15 02:53:00
10:53 PM,73.0,66.9,81,30.17,10.0,Calm,Calm,-,N/A,,Overcast,0,2013-07-15 03:53:00
11:53 PM,73.0,66.9,81,30.17,10.0,East,3.5,-,N/A,,Overcast,90,2013-07-15 04:53:00